KB1DML Weather Reports


time (UTC)temp
C
wind
direction
speed
KPH
gust
KPH
rain 1hr
cm
rain 24hr
cm
rain mn
cm
humidity
%
barometer
mb
20260507070016 13 0 3.2 12.9 0.00 0.18 0.00 82 1004.4
20260507065516 14 293 1.6 8.0 0.00 0.18 0.00 82 1004.4
20260507065017 14 270 1.6 6.4 0.00 0.18 0.00 82 1004.5
20260507064517 14 270 1.6 9.7 0.00 0.18 0.00 82 1004.6
20260507064016 14 270 3.2 14.5 0.00 0.18 0.00 81 1004.7
20260507063517 14 0 4.8 17.7 0.00 0.18 0.00 81 1004.7
20260507063017 14 0 3.2 12.9 0.00 0.18 0.00 81 1004.8
20260507062516 14 248 3.2 8.0 0.00 0.18 0.00 82 1004.6
20260507062037 15 293 3.2 8.0 0.00 0.18 0.00 83 1004.5
20260507061516 15 270 1.6 8.0 0.00 0.18 0.00 83 1004.4
20260507061016 15 293 3.2 9.7 0.00 0.18 0.00 83 1004.4
20260507060517 15 270 1.6 6.4 0.00 0.18 0.00 83 1004.5
20260507060017 15 0 3.2 12.9 0.00 0.18 0.00 83 1004.7
20260507055517 15 0 1.6 8.0 0.00 0.18 0.00 83 1004.6
20260507055016 15 0 1.6 4.8 0.00 0.18 0.00 83 1004.8
20260507054516 15 0 1.6 11.3 0.00 0.18 0.00 83 1004.8
20260507054016 15 225 1.6 6.4 0.00 0.18 0.00 84 1005.2
20260507053537 15 225 1.6 4.8 0.00 0.18 0.00 85 1005.0
20260507053017 15 225 1.6 6.4 0.00 0.18 0.00 85 1004.9
20260507052517 15 225 1.6 6.4 0.00 0.18 0.00 85 1004.9
20260507052017 15 225 1.6 6.4 0.00 0.18 0.00 85 1004.7
20260507051517 15 225 3.2 6.4 0.00 0.18 0.00 86 1004.5
20260507051016 15 270 3.2 12.9 0.00 0.18 0.00 86 1004.6
20260507050516 15 225 3.2 19.3 0.00 0.18 0.00 87 1004.7
20260507050016 15 225 3.2 16.1 0.00 0.18 0.00 88 1004.7
20260507045516 15 270 3.2 8.0 0.00 0.18 0.00 89 1004.8
20260507045017 15 225 1.6 6.4 0.00 0.18 0.00 89 1004.7
20260507044516 16 225 1.6 8.0 0.00 0.18 0.00 90 1004.6
20260507044036 16 225 1.6 8.0 0.00 0.18 0.00 90 1004.6
20260507043516 16 225 3.2 11.3 0.00 0.18 0.00 90 1004.5
20260507043019 16 225 1.6 6.4 0.00 0.18 0.00 90 1004.5
20260507042516 16 225 1.6 4.8 0.00 0.18 0.00 90 1004.4
20260507042018 16 225 1.6 3.2 0.00 0.18 0.00 90 1004.4
20260507041516 16 225 1.6 3.2 0.00 0.18 0.00 90 1004.5
20260507041017 16 225 1.6 6.4 0.00 0.18 0.00 90 1004.6
20260507040516 16 225 1.6 3.2 0.00 0.18 0.00 90 1004.8
20260507040016 16 225 1.6 6.4 0.00 0.18 0.18 90 1004.9
20260507035515 16 225 1.6 6.4 0.00 0.18 0.18 90 1004.8
20260507035014 16 180 1.6 11.3 0.00 0.18 0.18 90 1004.7
20260507034538 15 180 1.6 11.3 0.00 0.18 0.18 90 1004.7
20260507034037 15 225 1.6 8.0 0.00 0.18 0.18 90 1004.6
20260507033516 15 180 1.6 8.0 0.00 0.18 0.18 90 1004.5
20260507033019 15 180 3.2 11.3 0.00 0.18 0.18 90 1004.5
20260507032516 15 180 3.2 12.9 0.00 0.18 0.18 90 1004.4
20260507032017 15 225 3.2 12.9 0.00 0.18 0.18 90 1004.4
20260507031516 15 180 3.2 6.4 0.00 0.18 0.18 90 1004.3
20260507031017 15 180 3.2 12.9 0.00 0.18 0.18 90 1004.3
20260507030517 15 203 1.6 6.4 0.00 0.18 0.18 91 1004.1
20260507030017 15 225 1.6 8.0 0.00 0.18 0.18 91 1004.1
20260507025516 15 158 1.6 8.0 0.00 0.18 0.18 90 1004.1
20260507025017 15 158 3.2 8.0 0.00 0.18 0.18 90 1004.1
20260507024517 15 225 1.6 8.0 0.00 0.18 0.18 90 1004.2
20260507024037 15 203 3.2 11.3 0.00 0.18 0.18 90 1004.4
20260507023516 15 203 1.6 8.0 0.00 0.18 0.18 90 1004.4
20260507023017 15 203 1.6 6.4 0.00 0.18 0.18 90 1004.3
20260507022516 15 225 1.6 6.4 0.00 0.18 0.18 90 1004.3
20260507022016 15 225 1.6 8.0 0.00 0.18 0.18 90 1004.2
20260507021518 15 225 3.2 9.7 0.00 0.18 0.18 90 1004.2
20260507021036 15 180 3.2 9.7 0.00 0.18 0.18 90 1004.3
20260507020537 15 225 3.2 9.7 0.00 0.18 0.18 90 1004.4
20260507020018 15 203 3.2 14.5 0.00 0.18 0.18 90 1004.3
20260507015557 15 203 3.2 9.7 0.00 0.18 0.18 90 1004.3
20260507015016 15 158 3.2 17.7 0.00 0.18 0.18 90 1004.3
20260507014516 15 135 4.8 12.9 0.00 0.18 0.18 90 1004.3
20260507014036 15 158 4.8 12.9 0.00 0.18 0.18 90 1004.4
20260507013536 15 158 3.2 19.3 0.00 0.18 0.18 90 1004.5
20260507013016 15 203 3.2 17.7 0.00 0.18 0.18 90 1004.5
20260507012516 15 158 3.2 12.9 0.00 0.18 0.18 90 1004.5
20260507012016 15 225 1.6 12.9 0.00 0.18 0.18 90 1004.6
20260507011516 15 225 3.2 11.3 0.00 0.18 0.18 90 1004.6
20260507011039 15 225 3.2 12.9 0.00 0.18 0.18 90 1004.7
20260507010517 15 203 3.2 8.0 0.00 0.18 0.18 90 1004.8
20260507010016 15 135 4.8 17.7 0.00 0.18 0.18 90 1004.8
20260507005516 15 180 4.8 17.7 0.03 0.18 0.18 90 1004.8
20260507005016 15 203 4.8 12.9 0.03 0.18 0.18 90 1004.8
20260507004516 15 225 3.2 11.3 0.05 0.18 0.18 90 1004.8
20260507004017 15 180 4.8 12.9 0.05 0.18 0.18 90 1004.8
20260507003516 15 158 4.8 17.7 0.05 0.18 0.18 90 1004.7
20260507003016 15 135 4.8 20.9 0.05 0.18 0.18 89 1004.7
20260507002536 15 135 4.8 17.7 0.05 0.18 0.18 89 1004.7
20260507002016 15 158 6.4 20.9 0.05 0.18 0.18 89 1004.6
20260507001557 15 158 4.8 19.3 0.05 0.18 0.18 89 1004.6
20260507001017 15 180 4.8 14.5 0.05 0.18 0.18 89 1004.5
20260507000516 15 135 6.4 24.1 0.08 0.18 0.18 89 1004.4
20260507000016 15 158 3.2 11.3 0.08 0.18 0.18 89 1004.4
20260506235516 15 158 4.8 17.7 0.05 0.15 0.15 89 1004.4
20260506235016 15 158 4.8 16.1 0.05 0.15 0.15 89 1004.5
20260506234517 15 158 4.8 16.1 0.03 0.13 0.13 89 1004.4
20260506234036 15 0 9.7 22.5 0.03 0.13 0.13 89 1004.4
20260506233536 15 0 6.4 17.7 0.03 0.13 0.13 89 1004.4
20260506233016 15 0 8.0 19.3 0.03 0.13 0.13 89 1004.3
20260506232536 15 0 6.4 17.7 0.03 0.13 0.13 89 1004.2
20260506232037 15 0 8.0 24.1 0.03 0.13 0.13 89 1004.3
20260506231536 15 0 8.0 30.6 0.03 0.13 0.13 89 1004.3
20260506231017 15 0 8.0 22.5 0.03 0.13 0.13 88 1004.3
20260506230537 15 0 9.7 20.9 0.00 0.10 0.10 89 1004.3
20260506230016 15 0 9.7 20.9 0.00 0.10 0.10 88 1004.3
20260506225518 15 0 6.4 22.5 0.03 0.10 0.10 88 1004.3
20260506225016 15 0 6.4 22.5 0.03 0.10 0.10 88 1004.3
20260506224516 16 0 9.7 22.5 0.03 0.10 0.10 88 1004.4
20260506224017 16 0 8.0 19.3 0.03 0.10 0.10 88 1004.5
20260506223516 16 0 8.0 25.7 0.05 0.10 0.10 88 1004.6
20260506223016 16 0 8.0 19.3 0.05 0.10 0.10 88 1004.6
20260506222516 16 0 8.0 24.1 0.05 0.10 0.10 87 1004.8
20260506222016 16 0 11.3 27.4 0.05 0.10 0.10 87 1004.8
20260506221517 16 0 9.7 22.5 0.05 0.10 0.10 87 1004.7
20260506221016 16 0 11.3 22.5 0.05 0.10 0.10 87 1005.0
20260506220516 16 0 6.4 19.3 0.05 0.10 0.10 86 1004.9
20260506220036 16 0 8.0 19.3 0.05 0.10 0.10 86 1004.9
20260506215537 17 158 8.0 17.7 0.03 0.08 0.08 86 1005.0
20260506215016 17 135 4.8 19.3 0.03 0.08 0.08 85 1005.0
20260506214516 17 158 6.4 29.0 0.05 0.08 0.08 85 1005.1
20260506214016 17 158 6.4 29.0 0.05 0.08 0.08 85 1005.1
20260506213516 17 158 4.8 19.3 0.03 0.05 0.05 84 1005.2
20260506213037 17 158 6.4 25.7 0.03 0.05 0.05 84 1005.2
20260506212516 17 158 8.0 22.5 0.03 0.05 0.05 83 1005.1
20260506212018 17 158 8.0 19.3 0.03 0.05 0.05 83 1005.1
20260506211516 17 158 6.4 19.3 0.03 0.05 0.05 83 1005.1
20260506211017 17 203 6.4 20.9 0.03 0.05 0.05 82 1005.2
20260506210516 17 0 8.0 24.1 0.03 0.05 0.05 82 1005.3
20260506210016 17 0 4.8 20.9 0.03 0.05 0.05 82 1005.4
20260506205536 17 0 6.4 24.1 0.03 0.05 0.05 81 1005.3
20260506205016 17 0 8.0 19.3 0.03 0.05 0.05 81 1005.4
20260506204517 17 0 8.0 20.9 0.03 0.03 0.03 80 1005.5
20260506204016 17 0 8.0 29.0 0.03 0.03 0.03 79 1005.5
20260506203516 17 0 8.0 29.0 0.03 0.03 0.03 79 1005.5
20260506203036 17 0 8.0 27.4 0.03 0.03 0.03 78 1005.3
20260506202516 17 0 8.0 22.5 0.03 0.03 0.03 78 1005.4
20260506202016 18 0 11.3 35.4 0.03 0.03 0.03 77 1005.3
20260506201516 18 0 12.9 25.7 0.03 0.03 0.03 76 1005.2
20260506201036 18 0 8.0 27.4 0.03 0.03 0.03 76 1005.2
20260506200537 18 0 11.3 30.6 0.03 0.03 0.03 75 1005.1
20260506200016 18 0 9.7 24.1 0.03 0.03 0.03 74 1005.2
20260506195536 18 0 6.4 22.5 0.03 0.03 0.03 73 1005.2
20260506195017 19 0 6.4 17.7 0.03 0.03 0.03 72 1005.4
20260506194536 19 0 9.7 24.1 0.00 0.00 0.00 71 1005.5
20260506194016 19 0 9.7 24.1 0.00 0.00 0.00 70 1005.6
20260506193516 20 0 6.4 20.9 0.00 0.00 0.00 69 1005.7
20260506193016 20 0 6.4 20.9 0.00 0.00 0.00 68 1005.7
20260506192516 20 0 11.3 29.0 0.00 0.00 0.00 67 1005.7
20260506192036 20 0 8.0 25.7 0.00 0.00 0.00 67 1005.6
20260506191518 20 135 8.0 30.6 0.00 0.00 0.00 65 1005.5
20260506191016 21 158 8.0 22.5 0.00 0.00 0.00 63 1005.5
20260506190516 21 0 6.4 20.9 0.00 0.00 0.00 62 1005.4
20260506190016 21 0 6.4 16.1 0.00 0.00 0.00 61 1005.4
20260506185516 21 0 11.3 24.1 0.00 0.00 0.00 60 1005.5
20260506185019 21 0 6.4 22.5 0.00 0.00 0.00 60 1005.6
20260506184516 21 0 8.0 22.5 0.00 0.00 0.00 59 1005.6
20260506184016 21 0 9.7 32.2 0.00 0.00 0.00 59 1005.6
20260506183516 21 180 9.7 25.7 0.00 0.00 0.00 59 1005.6
20260506183016 21 158 8.0 29.0 0.00 0.00 0.00 58 1005.6
20260506182536 22 158 9.7 37.0 0.00 0.00 0.00 58 1005.6
20260506182016 22 0 9.7 27.4 0.00 0.00 0.00 57 1005.7
20260506181515 22 0 11.3 27.4 0.00 0.00 0.00 57 1005.7
20260506181037 22 0 9.7 25.7 0.00 0.00 0.00 56 1005.7
20260506180516 22 0 8.0 29.0 0.00 0.00 0.00 56 1005.7
20260506180015 22 0 6.4 22.5 0.00 0.00 0.00 57 1005.9
20260506175516 22 0 14.5 33.8 0.00 0.00 0.00 57 1005.9
20260506175016 22 0 11.3 27.4 0.00 0.00 0.00 57 1005.9
20260506174516 22 0 9.7 27.4 0.00 0.00 0.00 58 1006.1
20260506174016 22 0 12.9 30.6 0.00 0.00 0.00 58 1006.2
20260506173516 22 0 12.9 25.7 0.00 0.00 0.00 59 1006.2
20260506173016 22 0 12.9 30.6 0.00 0.00 0.00 59 1006.3
20260506172516 22 0 12.9 27.4 0.00 0.00 0.00 59 1006.3
20260506172016 22 0 12.9 37.0 0.00 0.00 0.00 59 1006.3
20260506171516 22 0 12.9 38.6 0.00 0.00 0.00 58 1006.2
20260506171016 22 0 9.7 22.5 0.00 0.00 0.00 59 1006.1
20260506170516 22 0 9.7 22.5 0.00 0.00 0.00 59 1006.3
20260506170016 22 0 12.9 35.4 0.00 0.00 0.00 59 1006.3
20260506165516 22 0 8.0 24.1 0.00 0.00 0.00 58 1006.3
20260506165036 22 0 12.9 32.2 0.00 0.00 0.00 58 1006.4
20260506164516 22 0 12.9 30.6 0.00 0.00 0.00 58 1006.5
20260506164016 22 0 6.4 20.9 0.00 0.00 0.00 59 1006.5
20260506163536 22 0 9.7 35.4 0.00 0.00 0.00 58 1006.6
20260506163016 22 0 6.4 17.7 0.00 0.00 0.00 58 1006.6
20260506162515 22 0 12.9 30.6 0.00 0.00 0.00 58 1006.7
20260506162016 22 0 12.9 27.4 0.00 0.00 0.00 58 1006.9
20260506161516 22 0 8.0 22.5 0.00 0.00 0.00 58 1006.9
20260506161016 22 0 9.7 19.3 0.00 0.00 0.00 58 1007.0
20260506160535 22 0 4.8 16.1 0.00 0.00 0.00 58 1007.1
20260506160037 22 0 8.0 29.0 0.00 0.00 0.00 58 1007.2
20260506155516 22 0 9.7 20.9 0.00 0.00 0.00 58 1007.3
20260506155015 22 0 6.4 22.5 0.00 0.00 0.00 58 1007.4
20260506154535 22 0 8.0 35.4 0.00 0.00 0.00 57 1007.4
20260506154016 22 135 12.9 35.4 0.00 0.00 0.00 56 1007.5
20260506153536 22 0 14.5 25.7 0.00 0.00 0.00 56 1007.6
20260506153016 22 0 8.0 25.7 0.00 0.00 0.00 56 1007.6
20260506152515 22 0 9.7 30.6 0.00 0.00 0.00 56 1007.6
20260506152015 22 0 9.7 27.4 0.00 0.00 0.00 56 1007.7
20260506151538 22 135 11.3 33.8 0.00 0.00 0.00 56 1007.8
20260506151016 22 0 11.3 32.2 0.00 0.00 0.00 56 1007.9
20260506150515 22 0 11.3 32.2 0.00 0.00 0.00 57 1007.7
20260506150015 22 0 6.4 19.3 0.00 0.00 0.00 58 1007.9
20260506145515 22 0 9.7 30.6 0.00 0.00 0.00 58 1007.8
20260506145015 22 0 4.8 17.7 0.00 0.00 0.00 59 1007.7
20260506144515 22 0 6.4 17.7 0.00 0.00 0.00 59 1007.8
20260506144015 22 0 6.4 24.1 0.00 0.00 0.00 59 1007.8
20260506143536 22 135 6.4 22.5 0.00 0.00 0.00 60 1007.7
20260506143015 21 203 8.0 25.7 0.00 0.00 0.00 61 1007.7
20260506142515 21 0 9.7 27.4 0.00 0.00 0.00 61 1007.6
20260506142015 21 0 6.4 19.3 0.00 0.00 0.00 62 1007.7
20260506141518 21 0 8.0 25.7 0.00 0.00 0.00 62 1007.6
20260506141035 21 0 8.0 24.1 0.00 0.00 0.00 64 1007.6
20260506140515 20 0 11.3 27.4 0.00 0.00 0.00 64 1007.8
20260506140015 20 0 6.4 22.5 0.00 0.00 0.00 65 1007.7
20260506135516 20 0 6.4 27.4 0.00 0.00 0.00 66 1007.8
20260506135015 20 0 9.7 27.4 0.00 0.00 0.00 66 1007.6
20260506134515 20 0 6.4 20.9 0.00 0.00 0.00 67 1007.8
20260506134015 20 0 6.4 20.9 0.00 0.00 0.00 67 1008.2
20260506133515 20 0 3.2 11.3 0.00 0.00 0.00 68 1008.4
20260506133015 20 0 4.8 25.7 0.00 0.00 0.00 68 1008.4
20260506132536 19 0 6.4 19.3 0.00 0.00 0.00 68 1008.4
20260506132035 19 0 8.0 25.7 0.00 0.00 0.00 69 1008.3
20260506131515 19 0 9.7 20.9 0.00 0.00 0.00 69 1008.2
20260506131015 19 0 9.7 25.7 0.00 0.00 0.00 69 1008.2
20260506130515 18 158 9.7 24.1 0.00 0.00 0.00 71 1008.2
20260506130036 18 0 8.0 17.7 0.00 0.00 0.00 71 1008.3
20260506125515 18 0 8.0 22.5 0.00 0.00 0.00 72 1008.5
20260506125015 18 158 9.7 20.9 0.00 0.00 0.00 73 1008.4
20260506124536 18 158 6.4 19.3 0.00 0.00 0.00 74 1008.4
20260506124015 17 158 8.0 27.4 0.00 0.00 0.00 75 1008.7
20260506123515 17 0 4.8 16.1 0.00 0.00 0.00 76 1008.5
20260506123036 17 0 6.4 19.3 0.00 0.00 0.00 76 1008.5
20260506122535 17 0 6.4 22.5 0.00 0.00 0.00 76 1008.4
20260506122016 17 0 6.4 19.3 0.00 0.00 0.00 77 1008.3
20260506121515 17 0 6.4 16.1 0.00 0.00 0.00 77 1008.4
20260506121015 17 0 6.4 14.5 0.00 0.00 0.00 78 1008.4
20260506120515 16 0 11.3 30.6 0.00 0.00 0.00 78 1008.6
20260506120015 16 0 9.7 24.1 0.00 0.00 0.00 78 1008.8
20260506115515 16 0 9.7 19.3 0.00 0.00 0.00 78 1008.8
20260506115016 16 0 8.0 22.5 0.00 0.00 0.00 78 1008.6
20260506114515 16 0 9.7 22.5 0.00 0.00 0.00 78 1008.9
20260506114015 16 0 8.0 25.7 0.00 0.00 0.00 78 1009.1
20260506113515 16 0 6.4 17.7 0.00 0.00 0.00 79 1009.0
20260506113015 16 0 6.4 19.3 0.00 0.00 0.00 78 1008.9
20260506112515 16 158 6.4 22.5 0.00 0.00 0.00 79 1008.8
20260506112016 16 135 8.0 19.3 0.00 0.00 0.00 79 1008.8
20260506111515 16 158 6.4 19.3 0.00 0.00 0.00 79 1008.7
20260506111015 16 158 6.4 25.7 0.00 0.00 0.00 79 1008.6
20260506110515 16 158 9.7 22.5 0.00 0.00 0.00 79 1008.7
20260506110015 16 158 8.0 24.1 0.00 0.00 0.00 79 1008.6
20260506105536 16 0 9.7 19.3 0.00 0.00 0.00 79 1008.7
20260506105015 16 0 9.7 24.1 0.00 0.00 0.00 79 1008.7
20260506104515 16 0 6.4 27.4 0.00 0.00 0.00 79 1008.7
20260506104016 16 0 6.4 20.9 0.00 0.00 0.00 79 1008.8
20260506103515 16 0 4.8 17.7 0.00 0.00 0.00 79 1008.9
20260506103015 16 0 4.8 20.9 0.00 0.00 0.00 79 1008.9
20260506102515 16 0 4.8 14.5 0.00 0.00 0.00 79 1008.8
20260506102015 16 0 4.8 17.7 0.00 0.00 0.00 79 1008.8
20260506101515 16 0 6.4 16.1 0.00 0.00 0.00 79 1008.6
20260506101016 16 0 4.8 19.3 0.00 0.00 0.00 79 1008.7
20260506100515 16 0 6.4 19.3 0.00 0.00 0.00 79 1008.6
20260506100015 16 0 4.8 24.1 0.00 0.00 0.00 79 1008.5
20260506095515 16 0 4.8 20.9 0.00 0.00 0.00 79 1008.4
20260506095016 16 0 8.0 17.7 0.00 0.00 0.00 78 1008.5
20260506094517 16 0 4.8 20.9 0.00 0.00 0.00 78 1008.5
20260506094015 16 0 4.8 22.5 0.00 0.00 0.00 78 1008.5
20260506093515 16 0 3.2 14.5 0.00 0.00 0.00 78 1008.6
20260506093015 16 0 6.4 19.3 0.00 0.00 0.00 77 1008.5
20260506092515 16 0 4.8 20.9 0.00 0.00 0.00 77 1008.5
20260506092016 16 0 4.8 19.3 0.00 0.00 0.00 77 1008.5
20260506091515 16 0 6.4 19.3 0.00 0.00 0.00 77 1008.4
20260506091015 16 0 8.0 19.3 0.00 0.00 0.00 77 1008.4
20260506090535 16 0 6.4 19.3 0.00 0.00 0.00 77 1008.5
20260506090015 16 0 6.4 19.3 0.00 0.00 0.00 76 1008.6
20260506085515 16 0 6.4 24.1 0.00 0.00 0.00 76 1008.5
20260506085015 16 0 8.0 22.5 0.00 0.00 0.00 76 1008.5
20260506084535 16 0 4.8 17.7 0.00 0.00 0.00 76 1008.5
20260506084015 16 0 6.4 20.9 0.00 0.00 0.00 76 1008.5
20260506083556 16 0 6.4 19.3 0.00 0.00 0.00 76 1008.6
20260506083015 16 0 4.8 17.7 0.00 0.00 0.00 76 1008.6
20260506082515 16 0 4.8 24.1 0.00 0.00 0.00 75 1008.5
20260506082036 16 0 4.8 14.5 0.00 0.00 0.00 75 1008.5
20260506081557 16 135 6.4 17.7 0.00 0.00 0.00 75 1008.5
20260506081017 16 158 8.0 20.9 0.00 0.00 0.00 75 1008.5
20260506080516 16 158 6.4 19.3 0.00 0.00 0.00 75 1008.4
20260506073517 17 158 4.8 14.5 0.00 0.00 0.00 73 1008.4
20260506073017 17 135 4.8 14.5 0.00 0.00 0.00 73 1008.4
20260506072517 17 135 6.4 17.7 0.00 0.00 0.00 73 1008.4
20260506072017 17 158 4.8 20.9 0.00 0.00 0.00 73 1008.4
20260506071517 17 135 6.4 17.7 0.00 0.00 0.00 72 1008.3
20260506071036 17 158 4.8 16.1 0.00 0.00 0.00 72 1008.3
20260506070537 17 158 4.8 14.5 0.00 0.00 0.00 72 1008.3